Location: Chrome
(40.5765°N, 74.2163°W)
Time: 00:15:59
(UTC+00:00)

Cosmos 2333 Rocket - Pass Details

Date: 06 December 2019
Orbit: 837 x 864 km, 70.8° (Epoch: 20 January)

Event Time Altitude Azimuth Distance (km) Brightness Sun altitude
Rises 23:22:54 0° 237° (WSW) 3,410 6.6 -20.8°
Reaches altitude 10° 23:25:45 10° 250° (WSW) 2,483 5.8 -21.4°
Maximum altitude 23:30:27 26° 306° (NW) 1,643 4.1 -22.2°
Drops below altitude 10° 23:35:11 10° 1° (N) 2,507 4.5 -23.1°
Enters shadow 23:36:13 - 7° (N) 2,825 4.8 -23.3°
